AMX177 MMMX-MMMY

Flight info

Callsign AMX177
Flight time 1h 15m
Altitude 35000
Route AXIRI2A AXIRI UT138 CVM UJ15E RETOS RETOS1B
Aircraft B737/M-SDE2E3FGHIRWXY/LB1

Departure

Time 2026-04-20 04:38
Airport Mexico City Benito Juárez International Airport (MMMX)

Arrival

Time 2026-04-20 05:53
Airport Monterrey International Airport (MMMY)
Time Latitude Longitude Altitude Speed Heading
2026-04-20 04:10 19.43450 -99.08169 7302 ft 0 kts 28°
2026-04-20 04:18 19.43449 -99.08169 7302 ft 0 kts 28°
2026-04-20 04:18 19.43449 -99.08170 7302 ft 0 kts 28°
2026-04-20 04:28 19.43442 -99.08174 7302 ft 4 kts 18°
2026-04-20 04:29 19.43417 -99.08174 7302 ft 4 kts 334°
2026-04-20 04:29 19.43395 -99.08163 7302 ft 4 kts
2026-04-20 04:29 19.43388 -99.08164 7302 ft 1 kts 59°
2026-04-20 04:32 19.43389 -99.08163 7302 ft 1 kts 57°
2026-04-20 04:32 19.43400 -99.08163 7302 ft 2 kts 337°
2026-04-20 04:32 19.43395 -99.08181 7302 ft 4 kts 231°
2026-04-20 04:32 19.43375 -99.08203 7302 ft 4 kts 224°
2026-04-20 04:33 19.43355 -99.08226 7302 ft 5 kts 231°
2026-04-20 04:33 19.43327 -99.08273 7302 ft 10 kts 238°
2026-04-20 04:33 19.43279 -99.08355 7302 ft 16 kts 238°
2026-04-20 04:33 19.43215 -99.08468 7302 ft 19 kts 239°
2026-04-20 04:34 19.43149 -99.08587 7302 ft 18 kts 239°
2026-04-20 04:34 19.43105 -99.08668 7302 ft 12 kts 239°
2026-04-20 04:34 19.43079 -99.08713 7302 ft 1 kts 233°
2026-04-20 04:34 19.43072 -99.08719 7302 ft 2 kts 215°
2026-04-20 04:35 19.43049 -99.08724 7302 ft 4 kts 184°
2026-04-20 04:35 19.43046 -99.08724 7302 ft 0 kts 182°
2026-04-20 04:35 19.43045 -99.08724 7302 ft 2 kts 181°
2026-04-20 04:35 19.43001 -99.08722 7302 ft 7 kts 177°
2026-04-20 04:36 19.42962 -99.08691 7300 ft 3 kts 70°
2026-04-20 04:36 19.42979 -99.08657 7300 ft 8 kts 60°
2026-04-20 04:36 19.42984 -99.08648 7300 ft 0 kts 59°
2026-04-20 04:37 19.43106 -99.08433 7300 ft 65 kts 59°
2026-04-20 04:37 19.43435 -99.07847 7304 ft 119 kts 59°
2026-04-20 04:37 19.43939 -99.06950 7305 ft 163 kts 59°
2026-04-20 04:38 19.44558 -99.05826 7483 ft 187 kts 60°
2026-04-20 04:38 19.45183 -99.04572 8072 ft 199 kts 62°
2026-04-20 04:38 19.45811 -99.03249 8793 ft 205 kts 60°
2026-04-20 04:38 19.46526 -99.01921 9471 ft 205 kts 57°
2026-04-20 04:39 19.47288 -99.00643 9826 ft 208 kts 54°
2026-04-20 04:39 19.48318 -98.99442 9987 ft 236 kts 38°
2026-04-20 04:39 19.49934 -98.98758 10026 ft 271 kts
2026-04-20 04:39 19.51896 -98.99073 10023 ft 295 kts 345°
2026-04-20 04:40 19.53869 -98.99606 9996 ft 297 kts 346°
2026-04-20 04:40 19.55875 -99.00065 10317 ft 296 kts 348°
2026-04-20 04:40 19.57917 -99.00446 10625 ft 300 kts 352°
2026-04-20 04:40 19.59987 -99.00760 10956 ft 300 kts 354°
2026-04-20 04:41 19.62062 -99.01020 11261 ft 302 kts 355°
2026-04-20 04:41 19.64157 -99.01245 11580 ft 303 kts 355°
2026-04-20 04:41 19.66305 -99.01451 11848 ft 322 kts 355°
2026-04-20 04:41 19.68618 -99.01653 12194 ft 340 kts 355°
2026-04-20 04:42 19.71003 -99.01849 13213 ft 346 kts 355°
2026-04-20 04:42 19.73387 -99.02038 14012 ft 350 kts 355°
2026-04-20 04:42 19.75835 -99.02227 14750 ft 354 kts 354°
2026-04-20 04:42 19.78301 -99.02413 15498 ft 357 kts 355°
2026-04-20 04:43 19.80793 -99.02600 16277 ft 360 kts 355°
2026-04-20 04:43 19.83299 -99.02786 17052 ft 363 kts 355°
2026-04-20 04:43 19.85828 -99.02974 17764 ft 366 kts 355°
2026-04-20 04:43 19.88384 -99.03163 18468 ft 370 kts 355°
2026-04-20 04:44 19.90963 -99.03355 19069 ft 373 kts 355°
2026-04-20 04:44 19.93574 -99.03548 19572 ft 380 kts 354°
2026-04-20 04:44 19.96191 -99.03743 20106 ft 384 kts 354°
2026-04-20 04:44 19.98873 -99.03942 20699 ft 388 kts 354°
2026-04-20 04:45 20.01579 -99.04143 21275 ft 392 kts 354°
2026-04-20 04:45 20.04312 -99.04346 21830 ft 396 kts 354°
2026-04-20 04:45 20.07068 -99.04551 22362 ft 399 kts 354°
2026-04-20 04:45 20.09854 -99.04758 22908 ft 403 kts 353°
2026-04-20 04:46 20.12668 -99.04967 23478 ft 407 kts 353°
2026-04-20 04:46 20.15506 -99.05178 23949 ft 411 kts 353°
2026-04-20 04:46 20.18372 -99.05391 24421 ft 414 kts 353°
2026-04-20 04:46 20.21223 -99.05604 24888 ft 417 kts 353°
2026-04-20 04:47 20.24129 -99.05820 25371 ft 421 kts 353°
2026-04-20 04:47 20.27060 -99.06038 25832 ft 424 kts 353°
2026-04-20 04:47 20.30020 -99.06259 26283 ft 428 kts 353°
2026-04-20 04:47 20.33000 -99.06480 26724 ft 432 kts 352°
2026-04-20 04:48 20.36008 -99.06705 27158 ft 435 kts 352°
2026-04-20 04:48 20.39031 -99.06930 27632 ft 437 kts 352°
2026-04-20 04:48 20.42078 -99.07157 28069 ft 440 kts 352°
2026-04-20 04:48 20.45152 -99.07334 28499 ft 445 kts 355°
2026-04-20 04:49 20.48267 -99.07265 28939 ft 450 kts 358°
2026-04-20 04:49 20.51367 -99.07096 29372 ft 454 kts 359°
2026-04-20 04:49 20.54520 -99.06889 29867 ft 455 kts 359°
2026-04-20 04:49 20.57674 -99.06681 30435 ft 453 kts 359°
2026-04-20 04:50 20.60804 -99.06484 31041 ft 449 kts 358°
2026-04-20 04:50 20.63909 -99.06301 31664 ft 445 kts 358°
2026-04-20 04:50 20.66993 -99.06131 32192 ft 443 kts 358°
2026-04-20 04:50 20.70074 -99.05970 32685 ft 443 kts 358°
2026-04-20 04:51 20.73150 -99.05813 33195 ft 441 kts 358°
2026-04-20 04:51 20.76204 -99.05659 33715 ft 439 kts 357°
2026-04-20 04:51 20.79212 -99.05507 34203 ft 438 kts 358°
2026-04-20 04:51 20.82249 -99.05353 34586 ft 437 kts 357°
2026-04-20 04:52 20.85288 -99.05200 34927 ft 437 kts 357°
2026-04-20 04:52 20.88332 -99.05047 35099 ft 441 kts 358°
2026-04-20 04:52 20.91408 -99.04893 35109 ft 443 kts 357°
2026-04-20 04:53 20.97557 -99.04578 35108 ft 439 kts 358°
2026-04-20 04:53 21.03600 -99.04267 35117 ft 437 kts 357°
2026-04-20 04:54 21.09667 -99.03958 35124 ft 436 kts 357°
2026-04-20 04:54 21.15730 -99.03649 35118 ft 436 kts 357°
2026-04-20 04:55 21.21781 -99.03339 35123 ft 435 kts 357°
2026-04-20 04:55 21.27840 -99.03029 35124 ft 437 kts 357°
2026-04-20 04:56 21.33932 -99.02718 35133 ft 439 kts 357°
2026-04-20 04:56 21.40005 -99.02406 35126 ft 441 kts 358°
2026-04-20 04:57 21.46138 -99.02091 35137 ft 441 kts 357°
2026-04-20 04:57 21.52273 -99.01776 35114 ft 441 kts 357°
2026-04-20 04:58 21.58400 -99.01459 35143 ft 441 kts 357°
2026-04-20 04:58 21.64486 -99.01146 35143 ft 440 kts 357°
2026-04-20 04:59 21.70591 -99.00831 35149 ft 439 kts 357°
2026-04-20 04:59 21.76686 -99.00517 35142 ft 438 kts 357°
2026-04-20 05:00 21.82769 -99.00203 35151 ft 438 kts 357°
2026-04-20 05:00 21.88852 -98.99889 35169 ft 437 kts 357°
2026-04-20 05:01 21.94895 -98.99578 35175 ft 438 kts 357°
2026-04-20 05:01 22.00994 -98.99262 35180 ft 439 kts 357°
2026-04-20 05:02 22.07103 -98.98946 35169 ft 440 kts 357°
2026-04-20 05:02 22.13225 -98.98629 35173 ft 440 kts 357°
2026-04-20 05:03 22.19302 -98.98313 35176 ft 440 kts 357°
2026-04-20 05:03 22.25418 -98.97995 35179 ft 440 kts 357°
2026-04-20 05:04 22.31538 -98.97678 35182 ft 440 kts 357°
2026-04-20 05:04 22.37661 -98.97359 35182 ft 441 kts 357°
2026-04-20 05:05 22.43785 -98.97040 35182 ft 441 kts 357°
2026-04-20 05:05 22.49915 -98.96721 35181 ft 441 kts 357°
2026-04-20 05:06 22.55992 -98.96403 35164 ft 439 kts 357°
2026-04-20 05:06 22.62072 -98.96085 35186 ft 438 kts 357°
2026-04-20 05:07 22.68154 -98.95768 35192 ft 438 kts 357°
2026-04-20 05:07 22.74254 -98.95450 35189 ft 439 kts 357°
2026-04-20 05:08 22.80322 -98.95133 35188 ft 440 kts 357°
2026-04-20 05:08 22.86434 -98.94812 35211 ft 440 kts 356°
2026-04-20 05:09 22.92555 -98.94491 35200 ft 441 kts 356°
2026-04-20 05:09 22.98683 -98.94170 35205 ft 441 kts 356°
2026-04-20 05:10 23.04803 -98.93848 35206 ft 440 kts 356°
2026-04-20 05:10 23.10882 -98.93528 35205 ft 440 kts 356°
2026-04-20 05:11 23.16992 -98.93207 35220 ft 440 kts 356°
2026-04-20 05:11 23.23099 -98.92885 35224 ft 439 kts 356°
2026-04-20 05:12 23.29207 -98.92563 35230 ft 439 kts 356°
2026-04-20 05:12 23.35284 -98.92518 35234 ft 433 kts 349°
2026-04-20 05:13 23.41228 -98.93123 35232 ft 432 kts 348°
2026-04-20 05:13 23.47210 -98.93745 35239 ft 432 kts 348°
2026-04-20 05:14 23.53200 -98.94311 35256 ft 432 kts 348°
2026-04-20 05:14 23.59179 -98.94855 35239 ft 431 kts 348°
2026-04-20 05:15 23.65098 -98.95395 35247 ft 429 kts 348°
2026-04-20 05:15 23.71049 -98.95942 35248 ft 428 kts 348°
2026-04-20 05:16 23.76960 -98.96609 35254 ft 427 kts 346°
2026-04-20 05:16 23.82861 -98.97335 35272 ft 427 kts 346°
2026-04-20 05:17 23.88760 -98.98048 35261 ft 426 kts 347°
2026-04-20 05:17 23.94606 -98.98744 35255 ft 425 kts 347°
2026-04-20 05:18 24.00474 -98.99440 35260 ft 424 kts 347°
2026-04-20 05:18 24.06333 -99.00136 35261 ft 423 kts 347°
2026-04-20 05:19 24.12179 -99.00832 35289 ft 423 kts 346°
2026-04-20 05:19 24.17993 -99.01525 35267 ft 423 kts 346°
2026-04-20 05:20 24.23840 -99.02221 35261 ft 422 kts 346°
2026-04-20 05:20 24.29679 -99.02916 35273 ft 422 kts 346°
2026-04-20 05:21 24.35514 -99.03612 35267 ft 422 kts 346°
2026-04-20 05:21 24.41346 -99.04308 35280 ft 421 kts 346°
2026-04-20 05:22 24.47143 -99.05001 35275 ft 422 kts 346°
2026-04-20 05:22 24.52981 -99.05699 35276 ft 422 kts 346°
2026-04-20 05:23 24.58841 -99.06403 34771 ft 425 kts 346°
2026-04-20 05:23 24.61757 -99.06750 34427 ft 420 kts 346°
2026-04-20 05:23 24.64620 -99.07091 33959 ft 417 kts 346°
2026-04-20 05:23 24.67492 -99.07434 33518 ft 413 kts 347°
2026-04-20 05:24 24.70338 -99.07774 33085 ft 410 kts 346°
2026-04-20 05:24 24.73158 -99.08112 32687 ft 406 kts 347°
2026-04-20 05:24 24.75950 -99.08447 32278 ft 403 kts 347°
2026-04-20 05:24 24.78729 -99.08783 31871 ft 400 kts 347°
2026-04-20 05:25 24.81484 -99.09115 31475 ft 397 kts 347°
2026-04-20 05:25 24.84221 -99.09444 31092 ft 394 kts 347°
2026-04-20 05:25 24.86936 -99.09771 30703 ft 392 kts 347°
2026-04-20 05:25 24.89604 -99.10093 30309 ft 390 kts 347°
2026-04-20 05:26 24.92229 -99.10634 29817 ft 378 kts 334°
2026-04-20 05:26 24.94538 -99.11884 29420 ft 364 kts 321°
2026-04-20 05:26 24.96470 -99.13613 28931 ft 354 kts 309°
2026-04-20 05:26 24.98139 -99.15581 28526 ft 349 kts 308°
2026-04-20 05:27 24.99775 -99.17546 28092 ft 347 kts 308°
2026-04-20 05:27 25.01397 -99.19494 27678 ft 343 kts 308°
2026-04-20 05:27 25.03011 -99.21422 27282 ft 341 kts 308°
2026-04-20 05:27 25.04618 -99.23333 26892 ft 339 kts 308°
2026-04-20 05:28 25.06206 -99.25219 26431 ft 342 kts 309°
2026-04-20 05:28 25.07833 -99.27147 26020 ft 345 kts 309°
2026-04-20 05:28 25.09484 -99.29102 25599 ft 352 kts 309°
2026-04-20 05:28 25.11173 -99.31102 25171 ft 361 kts 309°
2026-04-20 05:29 25.12895 -99.33139 24713 ft 364 kts 310°
2026-04-20 05:29 25.14621 -99.35180 24269 ft 363 kts 310°
2026-04-20 05:29 25.16344 -99.37217 23805 ft 363 kts 310°
2026-04-20 05:29 25.18066 -99.39257 23308 ft 362 kts 310°
2026-04-20 05:30 25.19755 -99.41258 22866 ft 360 kts 311°
2026-04-20 05:30 25.21642 -99.43055 22395 ft 361 kts 330°
2026-04-20 05:30 25.23905 -99.44150 22366 ft 347 kts 335°
2026-04-20 05:30 25.26064 -99.45218 22278 ft 334 kts 333°
2026-04-20 05:31 25.28123 -99.46280 22256 ft 319 kts 333°
2026-04-20 05:31 25.30085 -99.47301 22275 ft 304 kts 331°
2026-04-20 05:31 25.31955 -99.48277 22256 ft 290 kts 331°
2026-04-20 05:31 25.33738 -99.49208 22284 ft 279 kts 330°
2026-04-20 05:32 25.35487 -99.50122 22279 ft 278 kts 329°
2026-04-20 05:32 25.37241 -99.51040 22297 ft 281 kts 330°
2026-04-20 05:32 25.38994 -99.51957 22294 ft 284 kts 330°
2026-04-20 05:32 25.40785 -99.52892 22293 ft 286 kts 330°
2026-04-20 05:33 25.42588 -99.53832 22294 ft 287 kts 330°
2026-04-20 05:33 25.44399 -99.54776 22293 ft 288 kts 330°
2026-04-20 05:33 25.46214 -99.55722 22289 ft 289 kts 330°
2026-04-20 05:33 25.48030 -99.56668 22283 ft 288 kts 330°
2026-04-20 05:34 25.49844 -99.57611 22278 ft 287 kts 330°
2026-04-20 05:34 25.51642 -99.58544 22141 ft 284 kts 330°
2026-04-20 05:34 25.55197 -99.60391 21397 ft 286 kts 330°
2026-04-20 05:35 25.57039 -99.61353 20568 ft 303 kts 330°
2026-04-20 05:35 25.59023 -99.62392 19624 ft 324 kts 330°
2026-04-20 05:35 25.61075 -99.63460 19159 ft 326 kts 330°
2026-04-20 05:35 25.63115 -99.64517 18864 ft 321 kts 330°
2026-04-20 05:36 25.65103 -99.65547 18759 ft 309 kts 330°
2026-04-20 05:36 25.67025 -99.66545 18476 ft 303 kts 330°
2026-04-20 05:36 25.68906 -99.67527 18014 ft 303 kts 330°
2026-04-20 05:36 25.70813 -99.68523 17533 ft 303 kts 331°
2026-04-20 05:37 25.72715 -99.69516 17111 ft 302 kts 331°
2026-04-20 05:37 25.74611 -99.70504 16710 ft 300 kts 332°
2026-04-20 05:37 25.76493 -99.71497 16558 ft 300 kts 329°
2026-04-20 05:37 25.78096 -99.72939 16461 ft 298 kts 306°
2026-04-20 05:38 25.79229 -99.74847 16350 ft 294 kts 301°
2026-04-20 05:38 25.80311 -99.76762 16214 ft 292 kts 301°
2026-04-20 05:38 25.81398 -99.78673 16095 ft 294 kts 301°
2026-04-20 05:38 25.82495 -99.80594 15881 ft 298 kts 302°
2026-04-20 05:39 25.83598 -99.82520 15596 ft 300 kts 302°
2026-04-20 05:39 25.84714 -99.84463 15305 ft 298 kts 301°
2026-04-20 05:39 25.85825 -99.86398 15035 ft 295 kts 301°
2026-04-20 05:39 25.86920 -99.88310 14883 ft 293 kts 301°
2026-04-20 05:40 25.88014 -99.90222 14711 ft 294 kts 301°
2026-04-20 05:40 25.89111 -99.92141 14532 ft 295 kts 301°
2026-04-20 05:40 25.90217 -99.94075 14194 ft 296 kts 302°
2026-04-20 05:40 25.91295 -99.95959 13819 ft 289 kts 302°
2026-04-20 05:41 25.92361 -99.97823 13416 ft 283 kts 301°
2026-04-20 05:41 25.93414 -99.99666 12905 ft 282 kts 301°
2026-04-20 05:41 25.94461 -100.01498 12441 ft 279 kts 301°
2026-04-20 05:41 25.95493 -100.03304 11983 ft 276 kts 301°
2026-04-20 05:42 25.96518 -100.05098 11525 ft 275 kts 300°
2026-04-20 05:42 25.97544 -100.06897 11060 ft 276 kts 300°
2026-04-20 05:42 25.98571 -100.08698 10607 ft 276 kts 300°
2026-04-20 05:42 25.99604 -100.10512 10109 ft 281 kts 300°
2026-04-20 05:43 26.00650 -100.12348 9315 ft 289 kts 300°
2026-04-20 05:43 26.01727 -100.14239 8405 ft 290 kts 300°
2026-04-20 05:43 26.02800 -100.16121 7601 ft 286 kts 300°
2026-04-20 05:43 26.03826 -100.18001 6758 ft 282 kts 293°
2026-04-20 05:44 26.04212 -100.20071 5861 ft 267 kts 261°
2026-04-20 05:44 26.03679 -100.21946 5033 ft 247 kts 237°
2026-04-20 05:44 26.02675 -100.23411 4219 ft 228 kts 220°
2026-04-20 05:44 26.01457 -100.24358 3829 ft 199 kts 208°
2026-04-20 05:45 26.00329 -100.25109 3666 ft 182 kts 210°
2026-04-20 05:45 25.99289 -100.25806 3542 ft 169 kts 210°
2026-04-20 05:45 25.98323 -100.26454 3524 ft 156 kts 210°
2026-04-20 05:45 25.97416 -100.27064 3552 ft 152 kts 211°
2026-04-20 05:46 25.96504 -100.27676 3552 ft 154 kts 211°
2026-04-20 05:46 25.95597 -100.28286 3557 ft 152 kts 211°
2026-04-20 05:46 25.94703 -100.28886 3575 ft 148 kts 210°
2026-04-20 05:46 25.93812 -100.29484 3560 ft 149 kts 210°
2026-04-20 05:47 25.92917 -100.30085 3569 ft 152 kts 210°
2026-04-20 05:47 25.92002 -100.30699 3557 ft 154 kts 210°
2026-04-20 05:47 25.91082 -100.31316 3552 ft 154 kts 210°
2026-04-20 05:47 25.90131 -100.31805 3482 ft 153 kts 187°
2026-04-20 05:48 25.89203 -100.31455 3497 ft 142 kts 125°
2026-04-20 05:48 25.88873 -100.30417 3573 ft 150 kts 102°
2026-04-20 05:48 25.88274 -100.29469 3582 ft 152 kts 140°
2026-04-20 05:48 25.87466 -100.28689 3540 ft 153 kts 122°
2026-04-20 05:49 25.87119 -100.27630 3597 ft 142 kts 99°
2026-04-20 05:49 25.86666 -100.26580 3570 ft 156 kts 125°
2026-04-20 05:49 25.86039 -100.25608 3560 ft 153 kts 119°
2026-04-20 05:49 25.85490 -100.24623 3551 ft 148 kts 118°
2026-04-20 05:50 25.84963 -100.23664 3562 ft 149 kts 118°
2026-04-20 05:50 25.84421 -100.22670 3574 ft 151 kts 118°
2026-04-20 05:50 25.83871 -100.21665 3476 ft 154 kts 118°
2026-04-20 05:50 25.83320 -100.20660 3281 ft 151 kts 118°
2026-04-20 05:51 25.82791 -100.19691 3093 ft 143 kts 121°
2026-04-20 05:51 25.82291 -100.18776 2885 ft 135 kts 121°
2026-04-20 05:51 25.81798 -100.17877 2708 ft 138 kts 121°
2026-04-20 05:51 25.81295 -100.16963 2504 ft 139 kts 121°
2026-04-20 05:52 25.80800 -100.16061 2302 ft 138 kts 121°
2026-04-20 05:52 25.80295 -100.15144 2111 ft 140 kts 121°
2026-04-20 05:52 25.79779 -100.14208 1917 ft 144 kts 120°
2026-04-20 05:52 25.79264 -100.13264 1702 ft 142 kts 120°
2026-04-20 05:53 25.78756 -100.12291 1507 ft 143 kts 120°
2026-04-20 05:53 25.78244 -100.11385 1286 ft 133 kts 123°
2026-04-20 05:53 25.77866 -100.10688 1270 ft 75 kts 120°
2026-04-20 05:53 25.77654 -100.10332 1267 ft 26 kts 129°
2026-04-20 05:54 25.77606 -100.10247 1267 ft 19 kts 112°
2026-04-20 05:54 25.77515 -100.10081 1267 ft 27 kts 122°
2026-04-20 05:54 25.77420 -100.09913 1256 ft 25 kts 122°
2026-04-20 05:54 25.77333 -100.09757 1254 ft 18 kts 124°
2026-04-20 05:55 25.77269 -100.09682 1253 ft 9 kts 160°
2026-04-20 05:55 25.77245 -100.09698 1255 ft 4 kts 229°
2026-04-20 05:55 25.77217 -100.09723 1255 ft 7 kts 215°
2026-04-20 05:55 25.77172 -100.09756 1256 ft 9 kts 211°
2026-04-20 05:56 25.77157 -100.09815 1266 ft 9 kts 290°
2026-04-20 05:56 25.77185 -100.09873 1260 ft 9 kts 298°
2026-04-20 05:56 25.77213 -100.09931 1257 ft 8 kts 299°
2026-04-20 05:56 25.77250 -100.10004 1261 ft 17 kts 302°
2026-04-20 05:57 25.77343 -100.10169 1263 ft 32 kts 302°
2026-04-20 05:57 25.77469 -100.10395 1269 ft 33 kts 301°
2026-04-20 05:57 25.77580 -100.10600 1276 ft 29 kts 301°